[Iaude] MPEC J309: 2024 JJ17 [a=1.05,e=0.18,i=2.4,H=27.7]

mpec at cfa.harvard.edu mpec at cfa.harvard.edu
Wed May 15 07:43:45 EDT 2024


M.P.E.C. 2024-J309                                 Issued 2024 May 15, 11:42 UT

     The Minor Planet Electronic Circulars contain information on unusual
         minor planets, routine data on comets and natural satellites,
         and occasional editorial announcements.  They are published
    on behalf of Division F of the International Astronomical Union by the
          Minor Planet Center, Smithsonian Astrophysical Observatory,
                          Cambridge, MA 02138, U.S.A.
			  
             Prepared using the Tamkin Foundation Computer Network

                              MPC at CFA.HARVARD.EDU
            URL https://www.minorplanetcenter.net/    ISSN 1523-6714

                                   2024 JJ17                                    


Observations:
     K24J17J*1C2024 05 14.36241015 42 10.480+28 29 31.13         20.03GVEJ309G96
     K24J17J 1C2024 05 14.36759515 42 08.687+28 27 26.03         20.12GVEJ309G96
     K24J17J 1C2024 05 14.37278115 42 06.908+28 25 21.00         19.80GVEJ309G96
     K24J17J  C2024 05 14.38962615 41 59.421+28 18 10.09         19.8 GVEJ309H01
     K24J17J  C2024 05 14.39922915 41 56.430+28 14 17.22         20.0 GVEJ309H01
     K24J17J  C2024 05 14.40491015 41 54.692+28 11 59.19         19.9 GVEJ309H01
     K24J17J  C2024 05 14.41191215 41 52.609+28 09 09.46         20.6 GVEJ309H01
     K24J17J KC2024 05 14.44408515 41 44.848+27 56 35.99         19.91GVEJ309I52
     K24J17J KC2024 05 14.44509115 41 44.563+27 56 11.54         20.32GVEJ309I52
     K24J17J KC2024 05 14.44610315 41 44.293+27 55 47.10         19.66GVEJ309I52
     K24J17J KC2024 05 14.44710015 41 44.020+27 55 23.34         20.51GVEJ309I52
     K24J17J KB2024 05 14.64604 15 42 00.51 +26 41 14.0          19.4 GVEJ309P13
     K24J17J KB2024 05 14.65645 15 41 57.35 +26 37 31.7          19.6 GVEJ309P13
     K24J17J KB2024 05 14.67170 15 41 52.64 +26 32 07.1                VEJ309P13
     K24J17J 1C2024 05 14.86007 15 41 49.37 +25 24 28.9          20.3 VXEJ309033
     K24J17J 1C2024 05 14.86075 15 41 49.22 +25 24 15.8          20.9 VXEJ309033
     K24J17J 1C2024 05 14.86144 15 41 49.07 +25 24 02.3          21.1 VXEJ309033
     K24J17J 1C2024 05 14.96599 15 41 24.02 +24 50 07.5          20.8 VXEJ309033
     K24J17J 1C2024 05 14.96679 15 41 23.82 +24 49 52.0          20.8 VXEJ309033

Observer details:
033 Karl Schwarzschild Observatory, Tautenburg.  Observers C. Heogner, F.
    Ludwig, M. Hartmann, B. Stecklum.  Measurer B. Stecklum.  1.34-m f/3
    Schmidt + CCD.
G96 Mt. Lemmon Survey.  Observer D. Rankin.  Measurers T. Beuden, V. F.
    Carvajal, D. Fay, J. B. Fazekas, D. C. Fuls, A. R. Gibbs, A. D. Grauer, H.
    Groeller, J. K. Hogan, R. A. Kowalski, S. M. Larson, G. J. Leonard, D.
    Rankin, R. L. Seaman, F. C. Shelly, K. W. Wierzchos.  1.5-m reflector +
    10K CCD.
H01 Magdalena Ridge Observatory, Socorro.  Observers W. H. Ryan, E. V. Ryan.
    Measurer W. H. Ryan.  2.4-m f/8.9 Ritchey-Chretien + CCD.
I52 Steward Observatory, Mt. Lemmon Station.  Observer K. W. Wierzchos.
    Measurers T. Beuden, V. F. Carvajal, D. Fay, J. B. Fazekas, D. C. Fuls, A.
    R. Gibbs, A. D. Grauer, H. Groeller, J. K. Hogan, R. A. Kowalski, S. M.
    Larson, G. J. Leonard, D. Rankin, R. L. Seaman, F. C. Shelly, K. W.
    Wierzchos.  1.0-m prime focus + CCD.
P13 Baihuashan Observatory, Beijing.  Observers Z. Wang, B. Liu.  Measurer Z.
    Wang.  0.28-m f/2.2 reflector + CMO.

Orbital elements:
2024 JJ17                                                Earth MOID = 0.0079 AU
Epoch 2024 Mar. 31.0 TT = JDT 2460400.5                 Veres                   
M  31.23263              (2000.0)            P               Q                  
n   0.92237289     Peri.  282.15730     -0.78109015     -0.62384926             
a   1.0451975      Node   219.25359     +0.58802394     -0.72053538             
e   0.1752456      Incl.    2.41396     +0.21006193     -0.30272243             
P   1.07           H   27.77          G   0.15           U   6                  
Residuals in seconds of arc
240514 G96  0.1-  0.3-    240514 I52  0.1+  0.0     240514 033  0.1+  0.1+
240514 G96  0.0   0.0     240514 I52  0.1-  0.1-    240514 033  0.1+  0.2+
240514 G96  0.0   0.3+    240514 I52  0.0   0.1-    240514 033  0.1+  0.2+
240514 H01  0.0   0.0     240514 I52  0.1-  0.2+    240514 033  0.1+  0.3-
240514 H01  0.1+  0.1+    240514 P13  0.7-  0.9+    240514 033  0.1+  0.2-
240514 H01  0.0   0.2-    240514 P13  0.2-  0.2+
240514 H01  0.1+  0.1-    240514 P13  0.4-  0.3+

Ephemeris:
2024 JJ17                a,e,i = 1.05, 0.18, 2                   q = 0.8620
Date    TT    R. A. (2000) Decl.     Delta      r    Elong.  Phase     V
2024 04 15    03 27 04.4 +10 24 17   0.07785 0.9352    28.0   149.8    30.5
...
2024 04 30    03 30 27.2 +19 02 45   0.03108 0.9773    15.2   164.4    33.0
...
2024 05 08    03 17 05.6 +54 49 03   0.01035 1.0011    37.9   141.8    24.9
...
2024 05 14    15 43 06.0 +31 02 49   0.01343 1.0194   130.1    49.3    20.3
2024 05 15    15 41 19.9 +24 43 28   0.01586 1.0224   136.3    43.1    20.5
2024 05 16    15 40 10.1 +20 05 54   0.01843 1.0254   140.8    38.6    20.7
...
2024 05 22    15 37 27.4 +07 09 07   0.03514 1.0434   152.1    27.0    21.8
...
2024 05 30    15 36 58.1 +01 09 58   0.05901 1.0670   153.9    24.7    22.9
...
2024 06 14    15 40 35.8 -04 02 44   0.1088  1.1088   147.3    29.6    24.5

M. P. C. Staff               (C) Copyright 2024 MPC           M.P.E.C. 2024-J309





More information about the Iaude mailing list